Location: Blankensee
(53.5126°N, 14.3055°E)
Time: 18:35:44
(UTC+00:00)

NPP - Pass Details

Date: 08 August 2020
Orbit: 826 x 828 km, 98.7° (Epoch: 19 September)

Event Time Altitude Azimuth Distance (km) Brightness Sun altitude
Rises 01:47:28 0° 13° (NNE) 3,382 8.1 -12.5°
Reaches altitude 10° 01:49:53 10° 8° (N) 2,444 7.1 -12.3°
Maximum altitude 01:55:04 49° 295° (WNW) 1,064 4.1 -11.8°
Enters shadow 01:59:17 15° 225° (SW) 2,078 5.1 -11.4°
